F5OZP-13 Weather Reports


time (UTC)temp
F
wind
direction
speed
knots
gust
knots
rain 1hr
in
rain 24hr
in
rain mn
in
humidity
%
barometer
mb
20260507213356 55 0.0 0.0 0.00 0.00 0.00 99 1012.4
20260507212839 55 0.0 0.0 0.00 0.00 0.00 99 1012.5
20260507212331 55 0.0 0.0 0.00 0.00 0.00 99 1012.4
20260507211823 56 0.0 0.0 0.00 0.00 0.00 99 1012.3
20260507211315 56 0.0 0.0 0.00 0.00 0.00 99 1012.3
20260507210811 57 0.0 0.0 0.00 0.00 0.00 99 1012.3
20260507210311 57 0.0 0.0 0.00 0.00 0.00 99 1012.3
20260507205755 56 0.0 0.0 0.00 0.00 0.00 99 1012.3
20260507205247 56 0.0 0.0 0.00 0.00 0.00 99 1012.3
20260507204739 57 0.0 0.0 0.00 0.00 0.00 99 1012.3
20260507204230 57 0.0 0.0 0.00 0.00 0.00 99 1012.2
20260507203722 58 0.0 0.0 0.00 0.00 0.00 99 1012.2
20260507203222 58 0.0 0.0 0.00 0.00 0.00 99 1012.2
20260507202706 58 0.0 0.0 0.00 0.00 0.00 99 1012.2
20260507202158 58 0.0 0.0 0.00 0.00 0.00 99 1012.1
20260507201649 59 0.0 0.0 0.00 0.00 0.00 99 1012.1
20260507201146 59 0.0 0.0 0.00 0.00 0.00 99 1012.2
20260507200638 59 0.0 0.0 0.00 0.00 0.00 99 1012.1
20260507200138 59 0.0 0.0 0.00 0.00 0.00 99 1012.1
20260507195621 59 0.0 0.0 0.00 0.00 0.00 99 1012.0
20260507195113 59 0.0 0.0 0.00 0.00 0.00 99 1012.0
20260507194605 59 0.0 0.0 0.00 0.00 0.00 99 1011.9
20260507194057 59 0.0 0.0 0.00 0.00 0.00 99 1011.9
20260507193549 59 0.0 0.0 0.00 0.00 0.00 99 1011.8
20260507193049 60 0.0 0.0 0.00 0.00 0.00 99 1011.7
20260507192532 59 0.0 0.0 0.00 0.00 0.00 99 1011.6
20260507192024 60 0.0 0.0 0.00 0.00 0.00 99 1011.7
20260507191516 60 0.0 0.0 0.00 0.00 0.00 99 1011.6
20260507191013 61 0.0 0.0 0.00 0.00 0.00 99 1011.7
20260507190504 61 0.0 0.0 0.00 0.00 0.00 99 1011.6
20260507190005 62 0.0 0.0 0.00 0.00 0.00 99 1011.6
20260507185448 62 0.0 0.0 0.00 0.00 0.00 99 1011.6
20260507184939 63 0.0 0.0 0.00 0.00 0.00 99 1011.5
20260507184431 63 0.0 0.0 0.00 0.00 0.00 99 1011.5
20260507183923 64 0.0 0.0 0.00 0.00 0.00 99 1011.4
20260507183415 65 0.0 0.0 0.00 0.00 0.00 99 1011.4
20260507182915 65 0.0 0.0 0.00 0.00 0.00 99 1011.3
20260507182359 66 0.0 0.0 0.00 0.00 0.00 99 1011.2
20260507181850 67 0.0 0.0 0.00 0.00 0.00 99 1011.1
20260507181342 68 0.0 0.0 0.00 0.00 0.00 99 1011.1
20260507180839 69 0.0 0.0 0.00 0.00 0.00 99 1011.1
20260507180331 69 0.0 0.0 0.00 0.00 0.00 99 1011.0
20260507175831 69 0.0 0.0 0.00 0.00 0.00 99 1011.0
20260507175314 69 0.0 0.0 0.00 0.00 0.00 99 1011.1
20260507174806 68 0.0 0.0 0.00 0.00 0.00 99 1011.1
20260507174258 69 0.0 0.0 0.00 0.00 0.00 99 1011.1
20260507173750 69 0.0 0.0 0.00 0.00 0.00 99 1011.1
20260507173242 70 0.0 0.0 0.00 0.00 0.00 99 1011.2
20260507172742 70 0.0 0.0 0.00 0.00 0.00 99 1011.3
20260507172226 71 0.0 0.0 0.00 0.00 0.00 99 1011.3
20260507171717 71 0.0 0.0 0.00 0.00 0.00 99 1011.4
20260507171209 72 0.0 0.0 0.00 0.00 0.00 99 1011.4
20260507170701 73 0.0 0.0 0.00 0.00 0.00 93 1011.3
20260507170153 73 0.0 0.0 0.00 0.00 0.00 99 1011.4
20260507165653 75 0.0 0.0 0.00 0.00 0.00 99 1011.4
20260507165136 74 0.0 0.0 0.00 0.00 0.00 94 1011.5
20260507164628 74 0.0 0.0 0.00 0.00 0.00 84 1011.4
20260507164120 74 0.0 0.0 0.00 0.00 0.00 83 1011.5
20260507163612 75 0.0 0.0 0.00 0.00 0.00 90 1011.5
20260507163104 76 0.0 0.0 0.00 0.00 0.00 49 1011.5
20260507162604 77 0.0 0.0 0.00 0.00 0.00 43 1011.5
20260507162048 78 0.0 0.0 0.00 0.00 0.00 86 1011.5
20260507161540 77 0.0 0.0 0.00 0.00 0.00 99 1011.6
20260507161036 71 0.0 0.0 0.00 0.00 0.00 99 1011.7
20260507160528 69 0.0 0.0 0.00 0.00 0.00 99 1011.7
20260507160020 70 0.0 0.0 0.00 0.00 0.00 99 1011.8
20260507155520 69 0.0 0.0 0.00 0.00 0.00 99 1011.7
20260507155004 70 0.0 0.0 0.00 0.00 0.00 99 1011.7
20260507154455 70 0.0 0.0 0.00 0.00 0.00 99 1011.6
20260507153952 70 0.0 0.0 0.00 0.00 0.00 99 1011.6
20260507153444 72 0.0 0.0 0.00 0.00 0.00 52 1011.5
20260507152935 74 0.0 0.0 0.00 0.00 0.00 1011.4
20260507152435 78 0.0 0.0 0.00 0.00 0.00 99 1011.3
20260507151919 78 0.0 0.0 0.00 0.00 0.00 1011.3
20260507151411 77 0.0 0.0 0.00 0.00 0.00 1011.3
20260507150907 77 0.0 0.0 0.00 0.00 0.00 1011.3
20260507150401 77 0.0 0.0 0.00 0.00 0.00 1011.2
20260507145851 78 0.0 0.0 0.00 0.00 0.00 1011.3
20260507145351 77 0.0 0.0 0.00 0.00 0.00 1011.4
20260507144835 76 0.0 0.0 0.00 0.00 0.00 1011.4
20260507144327 76 0.0 0.0 0.00 0.00 0.00 1011.5
20260507143819 80 0.0 0.0 0.00 0.00 0.00 1011.6
20260507143310 78 0.0 0.0 0.00 0.00 0.00 1011.7
20260507142802 78 0.0 0.0 0.00 0.00 0.00 1011.7
20260507142306 77 0.0 0.0 0.00 0.00 0.00 1011.8
20260507141746 78 0.0 0.0 0.00 0.00 0.00 1011.9
20260507141238 76 0.0 0.0 0.00 0.00 0.00 1011.9
20260507140729 78 0.0 0.0 0.00 0.00 0.00 1012.0
20260507140221 78 0.0 0.0 0.00 0.00 0.00 27 1011.9
20260507135713 78 0.0 0.0 0.00 0.00 0.00 13 1012.0
20260507135213 77 0.0 0.0 0.00 0.00 0.00 48 1012.1
20260507134657 77 0.0 0.0 0.00 0.00 0.00 39 1012.2
20260507134149 76 0.0 0.0 0.00 0.00 0.00 38 1012.3
20260507133640 75 0.0 0.0 0.00 0.00 0.00 1012.4
20260507133132 77 0.0 0.0 0.00 0.00 0.00 18 1012.5
20260507132624 77 0.0 0.0 0.00 0.00 0.00 1012.6
20260507132124 77 0.0 0.0 0.00 0.00 0.00 1012.7
20260507131608 78 0.0 0.0 0.00 0.00 0.00 1012.8
20260507131104 76 0.0 0.0 0.00 0.00 0.00 1012.8
20260507130556 77 0.0 0.0 0.00 0.00 0.00 1013.0
20260507130048 76 0.0 0.0 0.00 0.00 0.00 15 1013.0
20260507125540 74 0.0 0.0 0.00 0.00 0.00 47 1013.1
20260507125040 74 0.0 0.0 0.00 0.00 0.00 31 1013.1
20260507124524 74 0.0 0.0 0.00 0.00 0.00 51 1013.2
20260507124016 76 0.0 0.0 0.00 0.00 0.00 77 1013.2
20260507122959 76 0.0 0.0 0.00 0.00 0.00 83 1013.3
20260507122451 75 0.0 0.0 0.00 0.00 0.00 95 1013.4
20260507121951 75 0.0 0.0 0.00 0.00 0.00 99 1013.5
20260507121435 75 0.0 0.0 0.00 0.00 0.00 99 1013.5
20260507120937 76 0.0 0.0 0.00 0.00 0.00 99 1013.6
20260507120423 75 0.0 0.0 0.00 0.00 0.00 99 1013.6
20260507115915 75 0.0 0.0 0.00 0.00 0.00 99 1013.6
20260507114907 73 0.0 0.0 0.00 0.00 0.00 99 1013.8
20260507114351 73 0.0 0.0 0.00 0.00 0.00 99 1013.9
20260507113843 72 0.0 0.0 0.00 0.00 0.00 99 1013.9
20260507113335 72 0.0 0.0 0.00 0.00 0.00 99 1013.9
20260507112826 73 0.0 0.0 0.00 0.00 0.00 99 1014.0
20260507112318 71 0.0 0.0 0.00 0.00 0.00 99 1014.0
20260507111818 72 0.0 0.0 0.00 0.00 0.00 99 1014.1
20260507111302 69 0.0 0.0 0.00 0.00 0.00 99 1014.2
20260507110758 72 0.0 0.0 0.00 0.00 0.00 99 1014.4
20260507110250 72 0.0 0.0 0.00 0.00 0.00 99 1014.3
20260507105742 72 0.0 0.0 0.00 0.00 0.00 99 1014.4
20260507105234 71 0.0 0.0 0.00 0.00 0.00 99 1014.5
20260507104734 69 0.0 0.0 0.00 0.00 0.00 99 1014.6
20260507104217 70 0.0 0.0 0.00 0.00 0.00 99 1014.6
20260507103710 71 0.0 0.0 0.00 0.00 0.00 99 1014.6
20260507103201 69 0.0 0.0 0.00 0.00 0.00 99 1014.7
20260507102653 72 0.0 0.0 0.00 0.00 0.00 99 1014.7
20260507102145 70 0.0 0.0 0.00 0.00 0.00 99 1014.9
20260507101645 71 0.0 0.0 0.00 0.00 0.00 99 1014.9
20260507101129 69 0.0 0.0 0.00 0.00 0.00 99 1015.0
20260507100625 68 0.0 0.0 0.00 0.00 0.00 99 1015.1
20260507100117 67 0.0 0.0 0.00 0.00 0.00 99 1015.1
20260507095609 67 0.0 0.0 0.00 0.00 0.00 99 1015.2
20260507095101 67 0.0 0.0 0.00 0.00 0.00 99 1015.2
20260507094606 68 0.0 0.0 0.00 0.00 0.00 99 1015.3
20260507094049 68 0.0 0.0 0.00 0.00 0.00 99 1015.2
20260507093541 68 0.0 0.0 0.00 0.00 0.00 99 1015.3
20260507093033 68 0.0 0.0 0.00 0.00 0.00 99 1015.4
20260507092525 68 0.0 0.0 0.00 0.00 0.00 99 1015.4
20260507092017 67 0.0 0.0 0.00 0.00 0.00 99 1015.4
20260507091517 66 0.0 0.0 0.00 0.00 0.00 99 1015.3
20260507091000 66 0.0 0.0 0.00 0.00 0.00 99 1015.3
20260507090457 67 0.0 0.0 0.00 0.00 0.00 99 1015.2
20260507085949 67 0.0 0.0 0.00 0.00 0.00 99 1015.3
20260507085441 68 0.0 0.0 0.00 0.00 0.00 99 1015.4
20260507084933 71 0.0 0.0 0.00 0.00 0.00 99 1015.4
20260507084433 71 0.0 0.0 0.00 0.00 0.00 99 1015.5
20260507083408 70 0.0 0.0 0.00 0.00 0.00 99 1015.5
20260507082900 71 0.0 0.0 0.00 0.00 0.00 99 1015.5
20260507082352 72 0.0 0.0 0.00 0.00 0.00 99 1015.6
20260507081844 70 0.0 0.0 0.00 0.00 0.00 99 1015.6
20260507081349 67 0.0 0.0 0.00 0.00 0.00 99 1015.6
20260507080837 66 0.0 0.0 0.00 0.00 0.00 99 1015.7
20260507080329 65 0.0 0.0 0.00 0.00 0.00 99 1015.8
20260507075820 64 0.0 0.0 0.00 0.00 0.00 99 1015.7
20260507075312 62 0.0 0.0 0.00 0.00 0.00 99 1015.8
20260507074804 61 0.0 0.0 0.00 0.00 0.00 99 1015.8
20260507074304 60 0.0 0.0 0.00 0.00 0.00 99 1015.7
20260507073748 59 0.0 0.0 0.00 0.00 0.00 99 1015.9
20260507073240 58 0.0 0.0 0.00 0.00 0.00 99 1015.8
20260507072732 57 0.0 0.0 0.00 0.00 0.00 99 1015.8
20260507072223 56 0.0 0.0 0.00 0.00 0.00 99 1015.9
20260507071715 55 0.0 0.0 0.00 0.00 0.00 99 1016.0
20260507071215 54 0.0 0.0 0.00 0.00 0.00 99 1015.9
20260507070703 54 0.0 0.0 0.00 0.00 0.00 99 1016.1
20260507070155 53 0.0 0.0 0.00 0.00 0.00 99 1016.0
20260507065647 52 0.0 0.0 0.00 0.00 0.00 99 1016.0
20260507065138 51 0.0 0.0 0.00 0.00 0.00 99 1016.0
20260507064630 51 0.0 0.0 0.00 0.00 0.00 99 1016.1
20260507064130 50 0.0 0.0 0.00 0.00 0.00 99 1016.0
20260507063614 50 0.0 0.0 0.00 0.00 0.00 99 1016.0
20260507063106 49 0.0 0.0 0.00 0.00 0.00 99 1015.9
20260507062557 49 0.0 0.0 0.00 0.00 0.00 99 1015.9
20260507062049 48 0.0 0.0 0.00 0.00 0.00 99 1015.9
20260507061541 48 0.0 0.0 0.00 0.00 0.00 99 1015.9
20260507061041 48 0.0 0.0 0.00 0.00 0.00 99 1016.0
20260507060529 47 0.0 0.0 0.00 0.00 0.00 99 1016.0
20260507060021 46 0.0 0.0 0.00 0.00 0.00 99 1016.0